Weather reports worldwide

Advertisment
Lulea/Kallax, Sweden (2186): temperature & dewpoint: 12.09.2019 06:00:00 - 18.09.2019 06:00:00 (CEST)Lulea/Kallax, Sweden (2186): wind speed & gusts: 12.09.2019 06:00:00 - 18.09.2019 06:00:00 (CEST)Lulea/Kallax, Sweden (2186): wind direction: 12.09.2019 06:00:00 - 18.09.2019 06:00:00 (CEST)Lulea/Kallax, Sweden (2186): reduced air pressure: 12.09.2019 06:00:00 - 18.09.2019 06:00:00 (CEST)Lulea/Kallax, Sweden (2186): visibility: 12.09.2019 06:00:00 - 18.09.2019 06:00:00 (CEST)Lulea/Kallax, Sweden (2186): precipitation: 12.09.2019 06:00:00 - 18.09.2019 06:00:00 (CEST)
Date & Time tt [°C] td [°C] ff [km/h] ff [kn] fx [km/h] fx [kn] dd ppp [hPa] vv [km] rr [mm]
18.09.2019 06:00:00 - - - - - - - - - -
18.09.2019 05:00:00 4,1 2,5 5 3 14 8 NNW 1007,4 10 0,0
18.09.2019 04:00:00 4,8 3,1 11 6 14 8 N 1007,1 10 0,0
18.09.2019 03:00:00 4,7 3,4 9 5 14 8 NNW 1006,7 10 0,0
18.09.2019 02:00:00 4,7 3,5 9 5 14 8 NNW 1006,4 10 0,0
18.09.2019 01:00:00 5,2 3,5 9 5 14 8 NNW 1006,0 10 0,0
18.09.2019 00:00:00 5,5 3,7 9 5 14 8 NNW 1005,8 10 0,0
17.09.2019 23:00:00 5,9 3,7 9 5 14 8 N 1005,4 10 0,0
17.09.2019 22:00:00 6,1 4,7 5 3 11 6 N 1004,8 10 0,0
17.09.2019 21:00:00 6,4 5,2 8 4 14 8 N 1004,3 10 0,0
17.09.2019 20:00:00 7,4 6,2 8 4 18 10 N 1003,9 10 0,0
17.09.2019 19:00:00 7,8 5,9 5 3 18 10 NE 1003,3 10 0,2
17.09.2019 18:00:00 8,7 6,7 8 4 14 8 N 1002,9 10 0,0
17.09.2019 17:00:00 8,5 6,1 8 4 22 12 N 1002,3 10 0,2
17.09.2019 16:00:00 9,3 6,2 13 7 22 12 N 1001,9 10 0,0
17.09.2019 15:00:00 9,0 6,3 16 9 22 12 N 1001,6 10 0,0
17.09.2019 14:00:00 8,5 6,3 8 4 22 12 N 1001,1 10 0,0
17.09.2019 13:00:00 7,8 6,3 13 7 22 12 N 1001,0 10 0,0
17.09.2019 12:00:00 7,1 6,2 16 9 25 14 NNW 1000,5 10 0,5
17.09.2019 11:00:00 6,8 5,4 16 9 32 18 N 1000,1 10 0,5
17.09.2019 10:00:00 6,8 5,1 15 8 29 16 N 999,6 10 0,0
17.09.2019 09:00:00 6,4 4,6 11 6 25 14 N 999,2 10 0,0
17.09.2019 08:00:00 5,8 4,4 11 6 25 14 N 998,8 10 0,0
17.09.2019 07:00:00 5,8 4,3 11 6 22 12 N 998,3 10 0,0
17.09.2019 06:00:00 6,0 4,5 11 6 22 12 N 998,3 10 0,0
17.09.2019 05:00:00 6,1 4,7 11 6 18 10 N 998,0 10 0,0
17.09.2019 04:00:00 6,2 5,0 9 5 22 12 N 997,8 10 0,0
17.09.2019 03:00:00 6,0 5,0 11 6 18 10 N 997,7 10 0,0
17.09.2019 02:00:00 6,1 4,9 9 5 18 10 N 997,6 10 0,0
17.09.2019 01:00:00 6,4 4,9 11 6 18 10 NNW 997,7 10 0,0
17.09.2019 00:00:00 6,6 4,8 11 6 22 12 N 997,7 10 0,0
16.09.2019 23:00:00 6,6 4,6 11 6 22 12 N 997,6 10 0,0
16.09.2019 22:00:00 6,9 4,6 11 6 22 12 N 997,7 10 0,0
16.09.2019 21:00:00 7,2 4,0 13 7 22 12 N 997,6 10 0,0
16.09.2019 20:00:00 7,9 3,7 13 7 25 14 N 997,5 10 0,0
16.09.2019 19:00:00 8,7 3,7 13 7 22 12 N 997,4 10 0,0
16.09.2019 18:00:00 9,3 3,5 18 10 25 14 N 997,1 10 0,0
16.09.2019 17:00:00 9,8 3,1 15 8 32 18 N 997,0 10 0,0
16.09.2019 16:00:00 10,1 2,7 16 9 36 19 N 996,8 10 0,0
16.09.2019 15:00:00 10,4 2,5 21 11 32 18 N 996,8 10 0,0
16.09.2019 14:00:00 10,1 2,0 21 11 32 18 N 996,7 10 0,0
16.09.2019 13:00:00 9,4 2,7 16 9 32 18 N 996,5 10 0,0
16.09.2019 12:00:00 8,8 2,8 21 11 36 19 N 996,4 10 0,0
16.09.2019 11:00:00 7,4 2,7 21 11 32 18 NNW 996,5 10 0,0
16.09.2019 10:00:00 6,3 2,6 21 11 32 18 N 996,4 10 0,0
16.09.2019 09:00:00 4,7 2,1 16 9 25 14 N 996,3 10 0,0
16.09.2019 08:00:00 3,5 1,5 16 9 25 14 N 995,9 10 0,0
16.09.2019 07:00:00 2,7 1,1 13 7 22 12 N 995,7 10 0,0
16.09.2019 06:00:00 2,5 0,9 13 7 25 14 N 995,4 10 0,0
16.09.2019 05:00:00 2,9 1,3 13 7 25 14 N 995,1 10 0,0
16.09.2019 04:00:00 3,7 2,1 13 7 22 12 N 994,4 10 0,0
16.09.2019 03:00:00 5,2 2,7 13 7 22 12 NNE 993,9 10 0,0
16.09.2019 02:00:00 6,0 3,2 11 6 22 12 NNE 993,2 10 0,0
16.09.2019 01:00:00 6,8 4,1 13 7 22 12 NNE 992,8 10 0,0
16.09.2019 00:00:00 7,2 4,2 15 8 25 14 NE 992,2 10 0,0
15.09.2019 23:00:00 7,9 4,5 15 8 29 16 NE 991,4 10 0,0
15.09.2019 22:00:00 8,2 5,1 13 7 29 16 ENE 991,1 10 0,0
15.09.2019 21:00:00 8,6 5,9 13 7 25 14 ENE 990,8 10 0,0
15.09.2019 20:00:00 8,0 6,6 9 5 25 14 NE 990,6 10 2,0
15.09.2019 19:00:00 8,4 6,4 9 5 22 12 ENE 990,6 10 0,9
15.09.2019 18:00:00 8,1 6,4 13 7 22 12 ENE 990,8 10 1,0
15.09.2019 17:00:00 7,9 6,0 15 8 36 19 E 990,5 10 2,0
15.09.2019 16:00:00 10,1 6,1 16 9 25 14 E 990,4 10 0,0
15.09.2019 15:00:00 9,5 6,4 11 6 32 18 E 990,7 10 0,8
15.09.2019 14:00:00 9,6 6,0 16 9 29 16 ESE 991,0 10 0,1
15.09.2019 13:00:00 8,5 6,5 16 9 47 25 ESE 991,7 10 1,0
15.09.2019 12:00:00 9,6 6,1 24 13 40 21 SE 991,9 10 0,0
15.09.2019 11:00:00 9,5 7,1 16 9 32 18 SSE 992,5 10 0,5
15.09.2019 10:00:00 8,3 5,9 16 9 32 18 SE 993,4 10 0,6
15.09.2019 09:00:00 7,3 5,4 26 14 36 19 SE 994,7 8 3,0
15.09.2019 08:00:00 7,8 5,9 8 4 32 18 SSE 995,3 10 3,0
15.09.2019 07:00:00 9,2 5,4 8 4 32 18 S 996,6 10 2,0
15.09.2019 06:00:00 8,9 4,7 11 6 22 12 SSE 997,5 10 0,0
15.09.2019 05:00:00 9,3 6,6 16 9 22 12 S 999,3 10 0,0
15.09.2019 04:00:00 8,4 5,7 11 6 18 10 S 1000,7 10 0,0
15.09.2019 03:00:00 4,6 4,0 5 3 14 8 S 1001,8 10 0,0
15.09.2019 02:00:00 4,1 3,4 2 1 4 2 - 1003,4 10 0,0
15.09.2019 01:00:00 3,9 3,5 0 0 7 4 N 1004,6 10 0,0
15.09.2019 00:00:00 3,9 3,3 4 2 7 4 - 1005,2 10 0,0
14.09.2019 23:00:00 4,9 3,6 2 1 7 4 SE 1006,2 10 0,0
14.09.2019 22:00:00 7,5 4,6 5 3 14 8 WSW 1007,1 10 0,0
14.09.2019 21:00:00 7,3 4,9 5 3 14 8 WSW 1007,7 10 0,0
14.09.2019 20:00:00 8,3 5,1 5 3 7 4 SW 1008,3 10 0,0
14.09.2019 19:00:00 9,9 5,3 8 4 11 6 SSW 1008,6 10 0,0
14.09.2019 18:00:00 11,3 5,0 8 4 14 8 S 1009,0 10 0,0
14.09.2019 17:00:00 12,0 3,7 9 5 18 10 S 1009,5 10 0,0
14.09.2019 16:00:00 12,2 4,2 16 9 22 12 S 1009,8 10 0,0
14.09.2019 15:00:00 12,1 4,3 16 9 22 12 S 1009,8 10 0,0
14.09.2019 14:00:00 11,9 3,4 9 5 18 10 SW 1010,1 10 0,0
14.09.2019 13:00:00 11,2 4,2 13 7 22 12 S 1010,0 10 0,0
14.09.2019 12:00:00 11,3 4,1 11 6 22 12 - 1010,0 10 0,0
14.09.2019 11:00:00 10,7 3,7 2 1 11 6 - 1009,9 10 0,0
14.09.2019 10:00:00 9,2 3,8 9 5 14 8 NW 1009,9 10 0,0
14.09.2019 09:00:00 7,8 3,5 9 5 11 6 NW 1009,8 10 0,0
14.09.2019 08:00:00 5,7 3,0 5 3 11 6 NW 1009,5 10 0,0
14.09.2019 07:00:00 5,0 3,0 8 4 18 10 NNW 1009,3 10 0,0
14.09.2019 06:00:00 5,4 3,1 15 8 18 10 WNW 1009,3 10 0,0
14.09.2019 05:00:00 6,4 3,4 11 6 18 10 NW 1009,0 10 0,0
14.09.2019 04:00:00 6,6 3,6 16 9 22 12 NW 1008,7 10 0,0
14.09.2019 03:00:00 7,1 3,9 18 10 22 12 NW 1008,2 10 0,0
14.09.2019 02:00:00 7,0 4,3 16 9 25 14 NW 1007,6 10 0,0
14.09.2019 01:00:00 7,3 4,3 16 9 22 12 NW 1007,2 10 0,0
14.09.2019 00:00:00 7,5 4,3 16 9 22 12 NW 1006,8 10 0,0
13.09.2019 23:00:00 7,0 5,0 16 9 - - WNW - 10 -
13.09.2019 22:00:00 7,8 5,9 16 9 22 12 NW 1005,8 10 0,0
13.09.2019 21:00:00 7,5 6,1 9 5 18 10 WNW 1005,3 10 0,0
13.09.2019 20:00:00 8,0 6,5 11 6 18 10 W 1005,0 10 0,0
13.09.2019 19:00:00 8,0 6,5 9 5 29 16 W 1004,5 10 0,6
13.09.2019 18:00:00 8,6 7,2 8 4 14 8 W 1003,9 10 0,0
13.09.2019 17:00:00 8,7 7,2 11 6 25 14 NW 1003,8 10 0,1
13.09.2019 16:00:00 8,4 6,7 13 7 25 14 NNW 1003,4 8 3,0
13.09.2019 15:00:00 9,3 7,2 18 10 36 19 NW 1002,6 10 0,8
13.09.2019 14:00:00 10,4 6,4 28 15 40 21 NW 1001,7 10 0,1
13.09.2019 13:00:00 12,4 5,1 16 9 29 16 WNW 1000,9 10 0,0
13.09.2019 12:00:00 12,0 4,7 22 12 32 18 NW 1000,5 10 0,0
13.09.2019 11:00:00 11,9 4,6 16 9 29 16 W 1000,6 10 0,0
13.09.2019 10:00:00 11,3 4,7 18 10 29 16 WNW 1000,5 10 0,0
13.09.2019 09:00:00 10,0 4,8 16 9 25 14 W 1000,4 10 0,0
13.09.2019 08:00:00 9,1 4,7 15 8 25 14 W 1000,3 10 0,0
13.09.2019 07:00:00 8,4 5,2 11 6 22 12 W 1000,3 10 0,0
13.09.2019 06:00:00 8,4 5,3 13 7 22 12 W 1000,2 10 0,0
13.09.2019 05:00:00 9,2 6,5 11 6 18 10 W 1000,2 10 0,0
13.09.2019 04:00:00 9,9 7,1 8 4 14 8 W 1000,2 10 0,0
13.09.2019 03:00:00 10,6 7,5 8 4 14 8 W 1000,3 10 0,0
13.09.2019 02:00:00 10,6 7,5 9 5 14 8 WSW 1000,5 10 0,0
13.09.2019 01:00:00 10,9 7,6 9 5 14 8 WSW 1000,4 10 0,0
13.09.2019 00:00:00 11,2 7,9 9 5 14 8 SW 1000,7 10 0,0
12.09.2019 23:00:00 11,5 8,0 9 5 18 10 WSW 1001,0 10 0,0
12.09.2019 22:00:00 11,8 8,3 9 5 18 10 WSW 1000,9 10 0,0
12.09.2019 21:00:00 12,5 8,4 8 4 18 10 SW 1001,0 10 0,0
12.09.2019 20:00:00 13,3 7,9 11 6 18 10 WSW 1000,7 10 0,0
12.09.2019 19:00:00 14,5 8,4 13 7 25 14 W 1000,5 10 0,0
12.09.2019 18:00:00 16,1 8,6 11 6 25 14 W 1000,1 10 0,0
12.09.2019 17:00:00 16,9 8,3 16 9 29 16 W 1000,0 10 0,0
12.09.2019 16:00:00 17,1 8,8 21 11 29 16 W 999,6 10 0,0
12.09.2019 15:00:00 17,7 10,9 9 5 22 12 WSW 999,2 10 0,0
12.09.2019 14:00:00 16,4 10,3 28 15 40 21 WNW 999,2 10 0,0
12.09.2019 13:00:00 15,4 13,4 15 8 25 14 S 998,8 10 0,0
12.09.2019 12:00:00 14,9 12,8 16 9 25 14 SSW 998,9 10 0,0
12.09.2019 11:00:00 14,0 12,7 13 7 25 14 SSW 998,9 10 0,0
12.09.2019 10:00:00 13,1 12,5 18 10 25 14 S 999,2 10 0,7
12.09.2019 09:00:00 13,2 12,6 18 10 29 16 S 999,7 10 0,6
12.09.2019 08:00:00 13,5 12,7 15 8 29 16 SSW 1000,0 10 0,0
12.09.2019 07:00:00 13,7 13,2 21 11 29 16 S 1000,1 10 1,0
12.09.2019 06:00:00 13,5 13,0 16 9 29 16 S 1000,4 5 2,0

tt = temperature
td = dewpoint
ff = wind speed
fx = gusts
dd = wind direction
ppp = reduced air pressure
vv = visibility
rr = precipitation

Next stations